Roy Baker — WDC2698 — position and weather

sailwx.info

Track history (hours):
 
Tides and Currents Weather Stations Pressure Air Temp Water Temp Dewpoint Dewpoint Depression Visibility Wind Speed Wind Dir Waves Ship Positions

Roy Baker

Owner: Kirby Inland Marine LP, Houston, TX. More information available from US FCC via Universal Licensing System and Coast Guard Vessel Documentation Center.

Last reported at 2014-Oct-24 12:22 UTC. Time now 2014-Oct-24 15:30 UTC.
Position N 29°34' W 090°31'.

Length 24 m; draft 2.3 m.

Type: Towing. MMSI: 366996540.

Date/timePositionNaut miles runAvg speedWind from/ knotsBaromVisibWave heightAir tempDewpointWater temp
2014-Oct-24 12:22N 29°34' W 090°31'11 3.9
2014-Oct-24 09:34N 29°34' W 090°44'6 5.3
2014-Oct-24 08:31N 29°32' W 090°50'6 5.8
2014-Oct-24 07:33N 29°34' W 090°56'5 5.3
2014-Oct-24 06:33N 29°37' W 091°00'5 5.5
2014-Oct-24 05:33N 29°38' W 091°07'4 4.1
2014-Oct-24 04:34N 29°41' W 091°10'4 3.9
2014-Oct-24 03:33N 29°40' W 091°14'5 4.6
2014-Oct-24 02:33N 29°38' W 091°20'5 5.0
2014-Oct-24 01:34N 29°39' W 091°25'5 4.7
2014-Oct-24 00:34N 29°42' W 091°30'  
2014-Oct-16 11:33N 29°50' W 093°59'0 0.0
2014-Oct-15 14:32N 29°50' W 093°59'  
Track history (hours):
 
Tides and Currents Weather Stations Pressure Air Temp Water Temp Dewpoint Dewpoint Depression Visibility Wind Speed Wind Dir Waves Ship Positions

Roy Baker

Owner: Kirby Inland Marine LP, Houston, TX. More information available from US FCC via Universal Licensing System and Coast Guard Vessel Documentation Center.

Last reported at 2014-Oct-24 12:22 UTC. Time now 2014-Oct-24 15:30 UTC.
Position N 29°34' W 090°31'.

Length 24 m; draft 2.3 m.

Type: Towing. MMSI: 366996540.

Date/timePositionNaut miles runAvg speedWind from/ knotsBaromVisibWave heightAir tempDewpointWater temp
2014-Oct-24 12:22N 29°34' W 090°31'11 3.9
2014-Oct-24 09:34N 29°34' W 090°44'6 5.3
2014-Oct-24 08:31N 29°32' W 090°50'6 5.8
2014-Oct-24 07:33N 29°34' W 090°56'5 5.3
2014-Oct-24 06:33N 29°37' W 091°00'5 5.5
2014-Oct-24 05:33N 29°38' W 091°07'4 4.1
2014-Oct-24 04:34N 29°41' W 091°10'4 3.9
2014-Oct-24 03:33N 29°40' W 091°14'5 4.6
2014-Oct-24 02:33N 29°38' W 091°20'5 5.0
2014-Oct-24 01:34N 29°39' W 091°25'5 4.7
2014-Oct-24 00:34N 29°42' W 091°30'  
2014-Oct-16 11:33N 29°50' W 093°59'0 0.0
2014-Oct-15 14:32N 29°50' W 093°59'  

Dump ship's entire track history